SVRATOUCH Weather Reports


time (UTC)temp
C
wind
direction
speed
KPH
gust
KPH
rain 1hr
cm
rain 24hr
cm
rain mn
cm
humidity
%
barometer
mb
20260901222317 13 190 11.3 0.0 0.00 0.00 0.00 67
20260901212026 13 180 11.3 0.0 0.00 0.00 0.00 67
20260901202215 13 180 3.2 0.0 0.00 0.00 0.00 67
20260901192215 15 260 3.2 0.0 0.00 0.00 0.00 62
20260901182026 16 290 3.2 0.0 0.00 0.00 0.00 63
20260901172215 17 330 3.2 0.0 0.00 0.00 0.00 55
20260901162318 17 330 8.0 0.0 0.00 0.00 0.00 52
20260901152026 18 330 14.5 0.0 0.00 0.00 0.00 52
20260901142215 17 290 19.3 0.0 0.00 0.00 0.00 55
20260901132115 17 330 14.5 0.0 0.00 0.00 0.00 59
20260901122033 17 290 22.5 0.0 0.00 0.00 0.00 55
20260901112117 17 300 19.3 0.0 0.00 0.00 0.00 59
20260901102332 16 290 22.5 0.0 0.00 0.00 0.00 63
20260901092033 16 300 19.3 0.0 0.00 0.00 0.00 67
20260901082250 15 290 25.7 0.0 0.00 0.00 0.00 67
20260901072246 15 290 22.5 0.0 0.00 0.00 0.00 77
20260901062046 12 280 22.5 0.0 0.00 0.00 0.00 82
20260901052131 12 270 19.3 0.0 0.00 0.00 0.00 87
20260901042346 12 270 22.5 0.0 0.00 0.00 0.00 82
20260901032047 12 270 19.3 0.0 0.00 0.00 0.00 82
20260901022246 12 280 22.5 0.0 0.00 0.00 0.00 76
20260901012250 13 260 19.3 0.0 0.00 0.00 0.00 76
20260901002033 15 260 19.3 0.0 0.00 0.00 0.00 67
20260831232146 15 270 14.5 0.0 0.00 0.00 0.00 67